Regional Weather Roundup
Issued by NWS Northern Indiana

Home | Current Version | Previous Version | Text Only | Print | Product List | Glossary Off
Versions: 1 2 3 4 5 6 7 8 9 10 11 12 13 14 15 16 17 18 19 20 21 22 23 24 25 26 27 28 29 30 31 32 33 34 35 36 37 38 39 40 41 42 43 44 45 46 47 48 49 50

000
ASUS43 KIWX 271410
RWRIWX

KIWX WEATHER ROUNDUP
NATIONAL WEATHER SERVICE NORTHERN INDIANA
1000 AM EDT WED AUG 27 2014

NOTE: "FAIR" INDICATES FEW OR NO CLOUDS BELOW 12,000 FEET WITH NO
SIGNIFICANT WEATHER AND/OR OBSTRUCTIONS TO VISIBILITY.

* THESE STATIONS ARE NOT UNDER NWS QUALITY CONTROL. THEY ALSO MAY NOT
  REPORT WEATHER SUCH AS PRECIPITATION OR FOG.

INZ001>027-271500-
NORTHERN INDIANA

CITY           SKY/WX    TMP DP  RH WIND       PRES   REMARKS
GARY*          MOSUNNY   73  63  68 NE7       30.15S
VALPARAISO     SUNNY     71  61  70 NE8       30.15S
MICHIGAN CITY* SUNNY     70  59  68 NE5       30.15S
LAPORTE*       SUNNY     70  58  66 NE7       30.16R
KNOX*          SUNNY     70  63  78 N6        30.14S
SOUTH BEND     SUNNY     71  62  73 N7        30.15S
ELKHART*       SUNNY     68  63  83 CALM      30.16
GOSHEN         SUNNY     70  62  76 N6        30.14R
MONTICELLO*    MOSUNNY   72  68  87 NE3       30.12S
LOGANSPORT*    PTSUNNY   70  68  94 E5        30.13F FOG
ROCHESTER*     SUNNY     73  64  73 N5        30.14R
WARSAW*        MOSUNNY   68  63  83 NE5       30.14R
ANGOLA*        SUNNY     70  63  78 N5        30.13R
FORT WAYNE     PTSUNNY   73  68  84 SW3       30.12F
HUNTINGTON*    CLOUDY    71  69  95 CALM      30.12F FOG
PERU/GRISSOM   PTSUNNY   72  68  88 NE5       30.12F
MARION*        CLOUDY    71  69  96 NE5       30.14R FOG

$$
INZ028>050-271500-
CENTRAL INDIANA

CITY           SKY/WX    TMP DP  RH WIND       PRES   REMARKS
LAFAYETTE      CLOUDY    70  70 100 E6        30.12R FOG
KOKOMO*        CLOUDY    70  68  94 NE7       30.12F
MUNCIE*        PTSUNNY   75  69  81 NE5       30.13R
INDIANAPOLIS   MOSUNNY   77  70  79 NW5       30.10S

$$
MIZ043>046-050>051-056>058-064>065-071>073-077>080-271500-
SOUTHWEST LOWER MICHIGAN

CITY           SKY/WX    TMP DP  RH WIND       PRES   REMARKS
BATTLE CREEK   CLOUDY    67  61  81 N7        30.15S
BENTON HARBOR  MOSUNNY   67  62  84 NE3       30.15S
COLDWATER*     MOSUNNY   67  64  88 N6        30.14F
HILLSDALE*     CLOUDY    66  66 100 CALM      30.14S FOG
HOLLAND        MOSUNNY   68  60  75 E5        30.17S
GRAND RAPIDS   PTSUNNY   65  63  93 NE5       30.16F
KALAMAZOO      CLOUDY    68  60  75 N6        30.15F
STURGIS*       MOSUNNY   64  63  94 NE5       30.14S
THREE RIVERS*  FAIR      68  63  83 CALM      30.15S

$$
OHZ001>008-015>018-024>025-271500-
NORTHWEST OHIO

CITY           SKY/WX    TMP DP  RH WIND       PRES   REMARKS
WAUSEON*       CLOUDY    68  66  94 CALM      30.13R FOG
DEFIANCE       PTSUNNY   73  65  75 N8        30.12S
FINDLAY        CLOUDY    74  68  81 CALM      30.10S
TOLEDO EXPRESS CLOUDY    69  66  90 N6        30.10F FOG
TOLEDO METCALF CLOUDY    73  66  78 NE8       30.11S
LIMA           PTSUNNY   75  69  81 CALM      30.11S

$$
&&



USA.gov is the U.S. government's official web portal to all federal, state and local government web resources and services.